Location: Hines Observatory
(31.5604°N, 83.5172°W)
Time: 02:27:27
(UTC-04:00)

Daily predictions for brighter satellites

Satellite Brightness Start Highest point End
(mag) Time Altitude Azimuth Time Altitude Azimuth Time Altitude Azimuth
Atlas Centaur 2 3.3 04:46:13 37° ESE 04:46:13 37° ESE 04:49:28 10° E
Okean O Rocket 3.1 04:59:31 10° NE 05:03:26 33° E 05:04:04 31° ESE
Cosmos 2263 Rocket 2.1 05:11:24 82° SE 05:11:34 83° ESE 05:17:16 10° NNE
ADEOS II 2.1 05:06:37 10° NNE 05:11:27 76° NNE 05:11:27 76° NNE
Cosmos 1437 Rocket 4.1 05:20:35 10° N 05:24:18 39° E 05:28:03 10° SSE
Cosmos 2084 4.2 05:26:06 38° NNE 05:27:00 46° ENE 05:30:51 10° SE
BREEZE-M R/B 3.9 05:35:48 43° N 05:35:48 43° N 05:40:23 10° NE
Cosmos 1607 4.1 05:38:46 45° W 05:39:55 51° WNW 05:46:04 10° NNE
ATLAS 3B R/B 3.3 05:33:11 13° SSW 05:39:57 63° ESE 05:47:05 10° NE
GPS 2-05 Rocket1 3.8 05:41:10 39° NE 05:41:10 39° NE 05:43:34 10° E
CZ-3 R/B 3.1 05:35:17 26° WSW 05:48:12 61° S 05:54:47 10° E
CZ-4B R/B 3.0 05:44:31 10° NNE 05:49:50 88° WNW 05:55:10 10° SSW
Cosmos 1975 Rocket 3.8 05:54:22 35° WNW 05:54:22 35° WNW 05:57:49 10° NNW
ISS -3.8 05:54:23 68° S 05:54:23 68° S 05:57:24 10° SE
PSLV R/B 3.9 05:51:15 10° N 05:55:04 41° WNW 05:55:04 41° WNW
Cosmos 1544 Rocket 3.8 05:53:42 10° N 05:58:02 68° E 06:02:21 10° SSE
Cosmos 1500 4.0 05:58:07 10° NNW 06:00:31 31° NW 06:00:31 31° NW
Atlas 2A Centaur Rocket 4.4 05:57:36 27° WSW 06:02:43 63° S 07:03:24 10° ESE
Okean-O 4.2 05:59:01 10° NNE 06:03:05 36° E 06:07:09 10° SSE
Cosmos 1975 2.7 06:01:32 10° NNW 06:05:36 65° W 06:09:38 10° S
Cosmos 1455 Rocket 3.2 06:01:44 10° N 06:06:03 75° E 06:10:21 10° S
ATLAS CENTAUR R/B 4.4 06:06:58 10° SE 06:08:24 12° ESE 06:09:48 10° E
Okean 1 4.5 06:11:49 24° WNW 06:11:49 24° WNW 06:14:34 10° NNW
SEDSat Delta rocket 3.9 06:08:53 26° W 06:11:54 48° SSW 06:16:59 10° SE
CZ-2C R/B 4.0 06:10:48 10° SSE 06:15:26 75° ENE 06:20:09 10° N
Cosmos 1536 Rocket 3.4 06:14:41 10° SSW 06:18:58 71° W 06:23:18 10° N
EO 1 Del DPAF 4.5 06:15:54 10° SSE 06:19:32 44° ENE 06:23:11 10° N
Cosmos 1553 Rocket 4.0 06:14:43 10° S 06:20:54 83° E 06:27:01 10° N
CZ-4B R/B 4.4 06:19:37 10° NNW 06:22:09 17° WNW 06:22:09 17° WNW
Cosmos 468 Rocket 4.4 06:17:38 10° N 06:22:56 67° ENE 06:28:12 10° SSE
NOSS 3-2 (A) 4.3 06:17:49 10° S 06:23:24 49° ESE 06:29:23 10° NE
Meteor 1-31 Rocket 3.0 06:23:54 10° N 06:27:36 44° WNW 06:31:15 10° SSW
Atlas Centaur 2 1.8 06:28:51 17° W 06:33:18 79° S 06:37:49 10° E
Landsat 4 3.9 06:30:18 10° S 06:33:58 46° W 06:37:39 10° NNW
S3M 4.0 06:33:14 10° S 06:39:25 76° W 06:45:45 10° N
Okean O Rocket 3.2 06:36:47 10° NNW 06:39:30 16° WNW 06:41:31 12° W
GOES 2 Rocket 3.5 06:38:34 14° W 06:42:01 48° S 06:46:38 10° ESE
Cosmos 1666 2.8 06:39:45 10° NNW 06:43:23 48° W 06:47:03 10° SSW
Cosmos 1763 Rocket 4.2 06:40:08 10° N 06:45:23 60° ENE 06:50:37 10° SSE
NOAA 6 4.0 06:40:50 10° N 06:46:01 78° WNW 06:51:12 10° SSW
USA 238 DEB 3.9 06:40:01 10° SW 06:46:46 54° WNW 06:53:36 10° NNE
USA 238 3.9 06:40:06 10° SW 06:46:52 55° WNW 06:53:42 10° NNE
Cosmos 1844 Rocket 2.7 06:42:13 10° SSW 06:47:50 71° WNW 06:53:30 10° NNE
Cosmos 1743 3.5 06:44:59 10° NNW 06:48:27 31° W 06:51:53 10° SSW
Cosmos 1943 4.2 06:44:34 10° NW 06:49:04 25° W 06:53:34 10° SSW
MTI 4.0 06:47:07 10° S 06:50:13 46° W 06:53:21 10° NNW
Feng Yun 1-1 Rocket 4.3 06:49:21 10° N 06:54:37 57° WNW 06:59:56 10° SSW
Cosmos 2263 Rocket 4.0 06:54:20 10° WNW 06:56:08 11° NW 06:57:57 10° NW
USA 116 3.9 06:53:36 10° SSW 06:56:47 34° W 06:59:45 10° NNW
Cosmos 1025 Rocket 3.0 06:53:09 10° S 06:57:24 84° W 07:01:41 10° N
ASC 2 Rocket 4.2 06:55:28 10° WSW 06:58:57 28° S 07:02:45 10° ESE
ASTRO E2 3.5 06:57:00 10° WSW 07:00:51 46° SSE 07:04:43 10° E
